Location: *
(48.8780°N, 19.2358°E)
Time: 20:57:28
(UTC+00:00)

Cosmos 1606 Rocket - Pass Details

Date: 18 October 2019
Orbit: 602 x 633 km, 82.5° (Epoch: 10 November)

Event Time Altitude Azimuth Distance (km) Brightness Sun altitude
Rises 16:17:28 0° 179° (S) 2,883 7.1 -5.5°
Reaches altitude 10° 16:19:42 10° 177° (S) 1,977 6.2 -5.9°
Maximum altitude 16:24:01 64° 96° (E) 685 3.5 -6.6°
Drops below altitude 10° 16:28:21 10° 15° (NNE) 1,975 5.9 -7.3°
Sets 16:30:35 0° 13° (NNE) 2,880 6.8 -7.7°
